C/2012 K6 ( McNaught )

Japanese version
Home page
Updated on May 6, 2015

---------------------------------------------------------------------

* Profile

Discovery Date May 27, 2012
Magnitude 18.4 mag
Discoverer Robert H. McNaught (Siding Spring)

* Pictures

* Orbital Elements

Epoch 2013 May 28.0 TT = JDT 2456440.5
T 2013 May 21.49614 TT                                  MPCW
q   3.3530820            (2000.0)            P               Q
z  +0.0001565      Peri.  338.83322     -0.71568383     -0.62148150
 +/-0.0000003      Node   206.89893     -0.49561734     +0.13042472
e   0.9994753      Incl.  135.21936     -0.49209767     +0.77249605
From 1043 observations 2012 May 27-2015 Apr. 9, mean residual 0".4.

* Finding Charts

* Magnitudes Graph

        m1 = 4.2 + 5 log d + 15.0 log r(t - 100)

---------------------------------------------------------------------

The orbital elements are published on M.P.E.C. 2015-H37.
The charts are made with StellaNavigator Ver.8 (AstroArts).
The magnitudes graphs are made with Comet for Windows.

---------------------------------------------------------------------

Copyright(C) Seiichi Yoshida (comet@aerith.net). All rights reserved.